Time,TemperatureF,DewpointF,PressureIn,WindDirection,WindDirectionDegrees,WindSpeedMPH,WindSpeedGustMPH,Humidity,HourlyPrecipIn,Conditions,Clouds,dailyrainin,SoftwareType,DateUTC
2013-12-02 00:00:00,21.0,18.3,29.97,South,182,2.0,4.0,89,0.00,,OVC100,0.00,VWS V14.01,2013-12-02 06:00:00,
2013-12-02 00:05:00,21.1,18.4,29.96,South,182,3.0,6.0,89,0.00,,OVC100,0.00,VWS V14.01,2013-12-02 06:05:00,
2013-12-02 00:10:00,21.3,18.6,29.96,South,181,3.0,8.0,89,0.00,,OVC100,0.00,VWS V14.01,2013-12-02 06:10:00,
2013-12-02 00:15:00,21.6,19.1,29.96,South,180,3.0,8.0,90,0.00,,OVC100,0.00,VWS V14.01,2013-12-02 06:15:00,
2013-12-02 00:21:00,21.8,19.1,29.95,South,180,2.0,6.0,89,0.00,,OVC100,0.00,VWS V14.01,2013-12-02 06:21:00,
2013-12-02 00:26:00,21.9,19.2,29.95,South,180,1.0,6.0,89,0.00,,OVC100,0.00,VWS V14.01,2013-12-02 06:26:00,
2013-12-02 00:30:00,22.1,19.4,29.94,South,180,4.0,6.0,89,0.00,,,0.00,VWS V15.00,2013-12-02 06:30:00,
2013-12-02 00:31:00,21.9,19.2,29.95,South,180,3.0,6.0,89,0.00,,OVC100,0.00,VWS V14.01,2013-12-02 06:31:00,
2013-12-02 00:36:00,22.1,19.4,29.94,South,180,1.0,5.0,89,0.00,,OVC100,0.00,VWS V14.01,2013-12-02 06:36:00,
2013-12-02 00:41:00,22.4,19.7,29.94,South,180,0.0,5.0,89,0.00,,OVC100,0.00,VWS V14.01,2013-12-02 06:41:00,
2013-12-02 00:45:00,22.4,19.7,29.94,South,180,0.0,5.0,89,0.00,,,0.00,VWS V15.00,2013-12-02 06:45:00,
2013-12-02 00:46:00,22.4,19.7,29.94,South,180,0.0,5.0,89,0.00,,OVC100,0.00,VWS V14.01,2013-12-02 06:46:00,
2013-12-02 00:51:00,22.4,19.7,29.94,South,180,0.0,0.0,89,0.00,,OVC090,0.00,VWS V14.01,2013-12-02 06:51:00,
2013-12-02 00:56:00,22.5,19.8,29.94,South,180,0.0,0.0,89,0.00,,OVC090,0.00,VWS V14.01,2013-12-02 06:56:00,
2013-12-02 01:00:00,22.5,19.8,29.94,South,180,0.0,1.0,89,0.00,,,0.00,VWS V15.00,2013-12-02 07:00:00,
2013-12-02 01:01:00,22.5,19.8,29.94,South,180,0.0,1.0,89,0.00,,OVC090,0.00,VWS V14.01,2013-12-02 07:01:00,
2013-12-02 01:06:00,22.5,19.8,29.94,South,180,1.0,2.0,89,0.00,,OVC090,0.00,VWS V14.01,2013-12-02 07:06:00,
2013-12-02 01:11:00,22.5,19.8,29.94,South,180,3.0,3.0,89,0.00,,OVC090,0.00,VWS V14.01,2013-12-02 07:11:00,
2013-12-02 01:15:00,22.5,19.5,29.93,South,180,0.0,3.0,88,0.00,,,0.00,VWS V15.00,2013-12-02 07:15:00,
2013-12-02 01:16:00,22.5,19.5,29.94,South,180,2.0,3.0,88,0.00,,OVC090,0.00,VWS V14.01,2013-12-02 07:16:00,
2013-12-02 01:21:00,22.4,19.4,29.93,South,180,1.0,3.0,88,0.00,,OVC090,0.00,VWS V14.01,2013-12-02 07:21:00,
2013-12-02 01:26:00,22.4,19.4,29.93,South,180,0.0,4.0,88,0.00,,OVC090,0.00,VWS V14.01,2013-12-02 07:26:00,
2013-12-02 01:30:00,22.4,19.7,29.93,South,180,2.0,4.0,89,0.00,,,0.00,VWS V15.00,2013-12-02 07:30:00,
2013-12-02 01:31:00,22.4,19.4,29.93,South,180,0.0,4.0,88,0.00,,OVC090,0.00,VWS V14.01,2013-12-02 07:31:00,
2013-12-02 01:36:00,22.5,19.8,29.93,South,180,3.0,5.0,89,0.00,,OVC090,0.00,VWS V14.01,2013-12-02 07:36:00,
2013-12-02 01:41:00,22.7,20.0,29.93,South,180,2.0,5.0,89,0.00,,OVC070,0.00,VWS V14.01,2013-12-02 07:41:00,
2013-12-02 01:45:00,22.9,20.1,29.92,South,180,2.0,5.0,89,0.00,,,0.00,VWS V15.00,2013-12-02 07:45:00,
2013-12-02 01:46:00,22.9,20.1,29.92,South,180,3.0,5.0,89,0.00,,OVC070,0.00,VWS V14.01,2013-12-02 07:46:00,
2013-12-02 01:51:00,22.9,20.1,29.92,South,180,0.0,4.0,89,0.00,,OVC070,0.00,VWS V14.01,2013-12-02 07:51:00,
2013-12-02 01:56:00,23.0,20.2,29.92,South,180,3.0,6.0,89,0.00,,OVC070,0.00,VWS V14.01,2013-12-02 07:56:00,
2013-12-02 02:00:00,23.2,20.4,29.92,South,180,5.0,6.0,89,0.00,,,0.00,VWS V15.00,2013-12-02 08:00:00,
2013-12-02 02:01:00,23.2,20.5,29.92,South,180,1.0,6.0,89,0.00,,OVC100,0.00,VWS V14.01,2013-12-02 08:01:00,
2013-12-02 02:06:00,23.3,20.5,29.92,South,180,0.0,5.0,89,0.00,,OVC100,0.00,VWS V14.01,2013-12-02 08:06:00,
2013-12-02 02:12:00,23.5,20.7,29.92,South,180,2.0,5.0,89,0.00,,OVC100,0.00,VWS V14.01,2013-12-02 08:12:00,
2013-12-02 02:15:00,23.6,20.8,29.92,South,180,3.0,5.0,89,0.00,,,0.00,VWS V15.00,2013-12-02 08:15:00,
2013-12-02 02:17:00,23.6,20.8,29.92,South,180,2.0,5.0,89,0.00,,OVC100,0.00,VWS V14.01,2013-12-02 08:17:00,
2013-12-02 02:22:00,23.8,21.0,29.92,South,180,3.0,4.0,89,0.00,,OVC100,0.00,VWS V14.01,2013-12-02 08:22:00,
2013-12-02 02:27:00,23.8,20.8,29.92,South,180,0.0,4.0,88,0.00,,OVC100,0.00,VWS V14.01,2013-12-02 08:27:00,
2013-12-02 02:30:00,23.8,20.8,29.91,South,180,0.0,4.0,88,0.00,,,0.00,VWS V15.00,2013-12-02 08:30:00,
2013-12-02 02:32:00,23.8,20.8,29.91,South,180,0.0,4.0,88,0.00,,OVC100,0.00,VWS V14.01,2013-12-02 08:32:00,
2013-12-02 02:37:00,23.9,21.1,29.91,South,180,4.0,5.0,89,0.00,,OVC100,0.00,VWS V14.01,2013-12-02 08:37:00,
2013-12-02 02:42:00,24.1,21.1,29.91,South,180,4.0,6.0,88,0.00,,OVC090,0.00,VWS V14.01,2013-12-02 08:42:00,
2013-12-02 02:45:00,24.2,21.2,29.90,South,180,3.0,6.0,88,0.00,,,0.00,VWS V15.00,2013-12-02 08:45:00,
2013-12-02 02:47:00,24.2,21.2,29.90,South,180,3.0,6.0,88,0.00,,OVC090,0.00,VWS V14.01,2013-12-02 08:47:00,
2013-12-02 02:52:00,24.2,21.2,29.90,South,180,4.0,7.0,88,0.00,,OVC090,0.00,VWS V14.01,2013-12-02 08:52:00,
2013-12-02 02:57:00,24.2,21.2,29.90,South,178,4.0,7.0,88,0.00,,OVC090,0.00,VWS V14.01,2013-12-02 08:57:00,
2013-12-02 03:00:00,24.4,21.4,29.90,SSE,168,5.0,9.0,88,0.00,,,0.00,VWS V15.00,2013-12-02 09:00:00,
2013-12-02 03:02:00,24.4,21.4,29.90,SSE,168,5.0,9.0,88,0.00,,OVC090,0.00,VWS V14.01,2013-12-02 09:02:00,
2013-12-02 03:07:00,24.4,21.4,29.90,SSE,167,4.0,9.0,88,0.00,,OVC090,0.00,VWS V14.01,2013-12-02 09:07:00,
2013-12-02 03:12:00,24.5,21.5,29.90,SSE,165,5.0,10.0,88,0.00,,OVC090,0.00,VWS V14.01,2013-12-02 09:12:00,
2013-12-02 03:15:00,24.7,21.7,29.89,SSE,164,8.0,10.0,88,0.00,,,0.00,VWS V15.00,2013-12-02 09:15:00,
2013-12-02 03:17:00,24.7,21.7,29.89,SSE,164,7.0,8.0,88,0.00,,OVC090,0.00,VWS V14.01,2013-12-02 09:17:00,
2013-12-02 03:22:00,25.1,22.3,29.89,SSE,160,6.0,10.0,89,0.00,,OVC090,0.00,VWS V14.01,2013-12-02 09:22:00,
2013-12-02 03:27:00,25.6,22.5,29.89,SSE,160,5.0,10.0,88,0.00,,OVC090,0.00,VWS V14.01,2013-12-02 09:27:00,
2013-12-02 03:30:00,25.4,22.1,29.89,SSE,159,7.0,10.0,87,0.00,,,0.00,VWS V15.00,2013-12-02 09:30:00,
2013-12-02 03:32:00,25.4,22.1,29.89,SSE,159,7.0,9.0,87,0.00,,OVC090,0.00,VWS V14.01,2013-12-02 09:32:00,
2013-12-02 03:37:00,25.6,22.5,29.89,SSE,159,4.0,11.0,88,0.00,,OVC090,0.00,VWS V14.01,2013-12-02 09:37:00,
2013-12-02 03:42:00,26.1,23.0,29.89,SSE,159,3.0,11.0,88,0.00,,OVC080,0.00,VWS V14.01,2013-12-02 09:42:00,
2013-12-02 03:45:00,26.7,23.4,29.88,SSE,159,5.0,11.0,87,0.00,,,0.00,VWS V15.00,2013-12-02 09:45:00,
2013-12-02 03:47:00,26.7,23.4,29.88,SSE,159,5.0,6.0,87,0.00,,OVC080,0.00,VWS V14.01,2013-12-02 09:47:00,
2013-12-02 03:52:00,27.0,23.4,29.88,SSE,157,6.0,10.0,86,0.00,,OVC070,0.00,VWS V14.01,2013-12-02 09:52:00,
2013-12-02 03:57:00,27.2,23.3,29.88,SSE,157,3.0,10.0,85,0.00,,OVC070,0.00,VWS V14.01,2013-12-02 09:57:00,
2013-12-02 04:00:00,27.0,22.8,29.87,SSE,157,4.0,10.0,84,0.00,,,0.00,VWS V15.00,2013-12-02 10:00:00,
2013-12-02 04:02:00,26.9,22.7,29.87,SSE,157,7.0,7.0,84,0.00,,OVC070,0.00,VWS V14.01,2013-12-02 10:02:00,
2013-12-02 04:07:00,26.7,22.8,29.87,SSE,152,10.0,11.0,85,0.00,,OVC070,0.00,VWS V14.01,2013-12-02 10:07:00,
2013-12-02 04:12:00,27.0,23.1,29.87,SSE,148,10.0,11.0,85,0.00,,OVC070,0.00,VWS V14.01,2013-12-02 10:12:00,
2013-12-02 04:15:00,27.0,22.8,29.87,SSE,147,9.0,11.0,84,0.00,,,0.00,VWS V15.00,2013-12-02 10:15:00,
2013-12-02 04:17:00,27.0,22.8,29.87,SSE,147,9.0,9.0,84,0.00,,OVC070,0.00,VWS V14.01,2013-12-02 10:17:00,
2013-12-02 04:22:00,26.9,22.7,29.87,SSE,147,5.0,9.0,84,0.00,,OVC070,0.00,VWS V14.01,2013-12-02 10:22:00,
2013-12-02 04:27:00,26.6,22.4,29.87,SSE,147,2.0,9.0,84,0.00,,OVC070,0.00,VWS V14.01,2013-12-02 10:27:00,
2013-12-02 04:30:00,26.4,22.5,29.86,SSE,147,4.0,9.0,85,0.00,,,0.00,VWS V15.00,2013-12-02 10:30:00,
2013-12-02 04:32:00,26.4,22.5,29.86,SSE,147,4.0,4.0,85,0.00,,OVC070,0.00,VWS V14.01,2013-12-02 10:32:00,
2013-12-02 04:37:00,26.4,22.8,29.86,SSE,147,5.0,8.0,86,0.00,,OVC070,0.00,VWS V14.01,2013-12-02 10:37:00,
2013-12-02 04:42:00,26.6,22.7,29.86,SSE,147,10.0,10.0,85,0.00,,OVC065,0.00,VWS V14.01,2013-12-02 10:42:00,
2013-12-02 04:45:00,26.6,23.0,29.86,SSE,147,7.0,11.0,86,0.00,,,0.00,VWS V15.00,2013-12-02 10:45:00,
2013-12-02 04:47:00,26.6,23.0,29.86,SSE,147,4.0,7.0,86,0.00,,OVC065,0.00,VWS V14.01,2013-12-02 10:47:00,
2013-12-02 04:53:00,26.9,23.3,29.86,SE,142,6.0,11.0,86,0.00,,OVC039,0.00,VWS V14.01,2013-12-02 10:53:00,
2013-12-02 04:58:00,26.9,23.0,29.86,SE,142,6.0,11.0,85,0.00,,OVC039,0.00,VWS V14.01,2013-12-02 10:58:00,
2013-12-02 05:00:00,26.7,22.8,29.85,SE,142,1.0,11.0,85,0.00,,,0.00,VWS V15.00,2013-12-02 11:00:00,
2013-12-02 05:03:00,26.7,22.8,29.85,SE,142,3.0,3.0,85,0.00,,OVC039,0.00,VWS V14.01,2013-12-02 11:03:00,
2013-12-02 05:08:00,26.7,23.1,29.85,SE,142,1.0,8.0,86,0.00,,OVC039,0.00,VWS V14.01,2013-12-02 11:08:00,
2013-12-02 05:13:00,26.6,23.0,29.85,SE,142,3.0,8.0,86,0.00,,OVC039,0.00,VWS V14.01,2013-12-02 11:13:00,
2013-12-02 05:15:00,26.7,23.1,29.84,SE,140,5.0,11.0,86,0.00,,,0.00,VWS V15.00,2013-12-02 11:15:00,
2013-12-02 05:18:00,26.7,23.1,29.84,SE,139,7.0,7.0,86,0.00,,OVC039,0.00,VWS V14.01,2013-12-02 11:18:00,
2013-12-02 05:23:00,26.9,23.3,29.84,SE,133,8.0,10.0,86,0.00,,OVC039,0.00,VWS V14.01,2013-12-02 11:23:00,
2013-12-02 05:28:00,27.5,23.9,29.84,ESE,120,6.0,12.0,86,0.00,,OVC039,0.00,VWS V14.01,2013-12-02 11:28:00,
2013-12-02 05:30:00,27.8,23.9,29.83,ESE,116,6.0,12.0,85,0.00,,,0.00,VWS V15.00,2013-12-02 11:30:00,
2013-12-02 05:33:00,27.9,24.0,29.83,ESE,115,4.0,9.0,85,0.00,,OVC039,0.00,VWS V14.01,2013-12-02 11:33:00,
2013-12-02 05:38:00,27.9,23.7,29.83,ESE,115,6.0,10.0,84,0.00,,OVC039,0.00,VWS V14.01,2013-12-02 11:38:00,
2013-12-02 05:43:00,27.8,23.6,29.83,ESE,112,3.0,10.0,84,0.00,,OVC060,0.00,VWS V14.01,2013-12-02 11:43:00,
2013-12-02 05:45:00,27.6,23.7,29.83,ESE,111,1.0,10.0,85,0.00,,,0.00,VWS V15.00,2013-12-02 11:45:00,
2013-12-02 05:48:00,27.6,23.7,29.83,ESE,111,6.0,6.0,85,0.00,,OVC060,0.00,VWS V14.01,2013-12-02 11:48:00,
2013-12-02 05:53:00,27.6,23.7,29.83,ESE,112,4.0,9.0,85,0.00,,OVC050,0.00,VWS V14.01,2013-12-02 11:53:00,
2013-12-02 05:58:00,27.5,23.6,29.83,ESE,111,2.0,9.0,85,0.00,,OVC050,0.00,VWS V14.01,2013-12-02 11:58:00,
2013-12-02 06:00:00,27.5,23.6,29.82,ESE,110,2.0,9.0,85,0.00,,,0.00,VWS V15.00,2013-12-02 12:00:00,
2013-12-02 06:03:00,27.5,23.6,29.82,ESE,110,7.0,9.0,85,0.00,,OVC050,0.00,VWS V14.01,2013-12-02 12:03:00,
2013-12-02 06:08:00,27.6,24.0,29.82,ESE,113,11.0,11.0,86,0.00,,OVC050,0.00,VWS V14.01,2013-12-02 12:08:00,
2013-12-02 06:13:00,28.2,24.0,29.82,ESE,112,6.0,11.0,84,0.00,,OVC050,0.00,VWS V14.01,2013-12-02 12:13:00,
2013-12-02 06:15:00,28.4,24.2,29.82,ESE,112,6.0,11.0,84,0.00,,,0.00,VWS V15.00,2013-12-02 12:15:00,
2013-12-02 06:18:00,28.5,24.0,29.82,ESE,111,7.0,11.0,83,0.00,,OVC050,0.00,VWS V14.01,2013-12-02 12:18:00,
2013-12-02 06:23:00,28.5,24.0,29.82,ESE,114,8.0,12.0,83,0.00,,OVC050,0.00,VWS V14.01,2013-12-02 12:23:00,
2013-12-02 06:28:00,28.7,23.9,29.82,ESE,114,6.0,12.0,82,0.00,,OVC050,0.00,VWS V14.01,2013-12-02 12:28:00,
2013-12-02 06:30:00,28.7,23.9,29.82,ESE,115,7.0,12.0,82,0.00,,,0.00,VWS V15.00,2013-12-02 12:30:00,
2013-12-02 06:33:00,28.7,23.9,29.82,ESE,114,8.0,10.0,82,0.00,,OVC050,0.00,VWS V14.01,2013-12-02 12:33:00,
2013-12-02 06:38:00,28.8,24.0,29.82,ESE,112,7.0,12.0,82,0.00,,OVC050,0.00,VWS V14.01,2013-12-02 12:38:00,
2013-12-02 06:43:00,28.7,23.9,29.82,ESE,114,6.0,12.0,82,0.00,,OVC050,0.00,VWS V14.01,2013-12-02 12:43:00,
2013-12-02 06:45:00,28.7,23.9,29.82,ESE,111,5.0,12.0,82,0.00,,,0.00,VWS V15.00,2013-12-02 12:45:00,
2013-12-02 06:48:00,28.7,23.9,29.82,ESE,110,11.0,11.0,82,0.00,,OVC050,0.00,VWS V14.01,2013-12-02 12:48:00,
2013-12-02 06:53:00,28.8,24.0,29.82,ESE,111,10.0,11.0,82,0.00,,OVC041,0.00,VWS V14.01,2013-12-02 12:53:00,
2013-12-02 06:58:00,28.8,24.0,29.82,ESE,120,9.0,11.0,82,0.00,,OVC041,0.00,VWS V14.01,2013-12-02 12:58:00,
2013-12-02 07:00:00,28.8,24.0,29.81,ESE,113,3.0,11.0,82,0.00,,,0.00,VWS V15.00,2013-12-02 13:00:00,
2013-12-02 07:03:00,28.8,24.0,29.81,ESE,113,7.0,7.0,82,0.00,,OVC041,0.00,VWS V14.01,2013-12-02 13:03:00,
2013-12-02 07:08:00,28.8,24.0,29.81,ESE,123,5.0,11.0,82,0.00,,OVC041,0.00,VWS V14.01,2013-12-02 13:08:00,
2013-12-02 07:13:00,28.8,24.0,29.81,ESE,122,6.0,11.0,82,0.00,,OVC041,0.00,VWS V14.01,2013-12-02 13:13:00,
2013-12-02 07:15:00,29.0,24.2,29.81,ESE,123,6.0,11.0,82,0.00,,,0.00,VWS V15.00,2013-12-02 13:15:00,
2013-12-02 07:18:00,29.0,24.2,29.81,ESE,123,5.0,8.0,82,0.00,,OVC041,0.00,VWS V14.01,2013-12-02 13:18:00,
2013-12-02 07:23:00,29.1,24.3,29.81,SE,135,7.0,11.0,82,0.00,,OVC041,0.00,VWS V14.01,2013-12-02 13:23:00,
2013-12-02 07:28:00,29.1,24.3,29.81,SE,135,8.0,12.0,82,0.00,,OVC041,0.00,VWS V14.01,2013-12-02 13:28:00,
2013-12-02 07:30:00,29.1,24.3,29.81,SE,135,7.0,12.0,82,0.00,,,0.00,VWS V15.00,2013-12-02 13:30:00,
2013-12-02 07:33:00,29.3,24.5,29.81,SE,134,9.0,11.0,82,0.00,,OVC041,0.00,VWS V14.01,2013-12-02 13:33:00,
2013-12-02 07:38:00,29.3,24.5,29.81,SE,135,10.0,13.0,82,0.00,,OVC041,0.00,VWS V14.01,2013-12-02 13:38:00,
2013-12-02 07:43:00,29.4,24.6,29.81,ESE,123,11.0,13.0,82,0.00,,BKN110,0.00,VWS V14.01,2013-12-02 13:43:00,
2013-12-02 07:45:00,29.4,24.6,29.81,ESE,118,9.0,13.0,82,0.00,,,0.00,VWS V15.00,2013-12-02 13:45:00,
2013-12-02 07:48:00,29.4,24.6,29.81,ESE,122,10.0,11.0,82,0.00,,BKN110,0.00,VWS V14.01,2013-12-02 13:48:00,
2013-12-02 07:54:00,29.5,24.7,29.81,ESE,116,11.0,13.0,82,0.00,,BKN090,0.00,VWS V14.01,2013-12-02 13:54:00,
2013-12-02 07:59:00,29.5,24.7,29.81,ESE,118,6.0,14.0,82,0.00,,BKN090,0.00,VWS V14.01,2013-12-02 13:59:00,
2013-12-02 08:00:00,29.7,24.9,29.81,ESE,118,7.0,14.0,82,0.00,,,0.00,VWS V15.00,2013-12-02 14:00:00,
2013-12-02 08:04:00,29.7,24.9,29.81,SE,129,13.0,14.0,82,0.00,,BKN090,0.00,VWS V14.01,2013-12-02 14:04:00,
2013-12-02 08:09:00,29.8,25.0,29.81,SE,129,11.0,16.0,82,0.00,,BKN090,0.00,VWS V14.01,2013-12-02 14:09:00,
2013-12-02 08:14:00,29.8,25.0,29.81,SE,132,11.0,16.0,82,0.00,,BKN090,0.00,VWS V14.01,2013-12-02 14:14:00,
2013-12-02 08:15:00,30.0,25.2,29.81,SE,130,8.0,16.0,82,0.00,,,0.00,VWS V15.00,2013-12-02 14:15:00,
2013-12-02 08:19:00,30.0,25.2,29.81,ESE,123,9.0,13.0,82,0.00,,BKN090,0.00,VWS V14.01,2013-12-02 14:19:00,
2013-12-02 08:24:00,30.0,25.2,29.81,SE,125,13.0,15.0,82,0.00,,BKN090,0.00,VWS V14.01,2013-12-02 14:24:00,
2013-12-02 08:29:00,30.1,25.3,29.81,SE,130,10.0,15.0,82,0.00,,BKN090,0.00,VWS V14.01,2013-12-02 14:29:00,
2013-12-02 08:30:00,30.1,25.3,29.81,SE,135,10.0,15.0,82,0.00,,,0.00,VWS V15.00,2013-12-02 14:30:00,
2013-12-02 08:34:00,30.3,25.5,29.81,ESE,123,15.0,15.0,82,0.00,,BKN090,0.00,VWS V14.01,2013-12-02 14:34:00,
2013-12-02 08:39:00,30.3,25.5,29.81,ESE,117,13.0,15.0,82,0.00,,BKN090,0.00,VWS V14.01,2013-12-02 14:39:00,
2013-12-02 08:44:00,30.3,25.5,29.81,SE,127,11.0,15.0,82,0.00,,OVC060,0.00,VWS V14.01,2013-12-02 14:44:00,
2013-12-02 08:45:00,30.4,25.6,29.80,ESE,110,4.0,15.0,82,0.00,,,0.00,VWS V15.00,2013-12-02 14:45:00,
2013-12-02 08:49:00,30.4,25.6,29.80,ESE,123,13.0,13.0,82,0.00,,OVC060,0.00,VWS V14.01,2013-12-02 14:49:00,
2013-12-02 08:54:00,30.4,25.6,29.80,SE,139,7.0,14.0,82,0.00,,OVC048,0.00,VWS V14.01,2013-12-02 14:54:00,
2013-12-02 08:59:00,30.4,25.9,29.80,SE,126,11.0,14.0,83,0.00,,OVC048,0.00,VWS V14.01,2013-12-02 14:59:00,
2013-12-02 09:00:00,30.4,25.9,29.80,SE,130,16.0,16.0,83,0.00,,,0.00,VWS V15.00,2013-12-02 15:00:00,
2013-12-02 09:04:00,30.4,25.9,29.80,SE,132,13.0,16.0,83,0.00,,OVC048,0.00,VWS V14.01,2013-12-02 15:04:00,
2013-12-02 09:10:00,30.4,26.1,29.80,SE,129,15.0,16.0,84,0.00,,OVC048,0.00,VWS V14.01,2013-12-02 15:10:00,
2013-12-02 09:15:00,30.3,26.3,29.80,ESE,122,3.0,16.0,85,0.00,,OVC048,0.00,VWS V14.01,2013-12-02 15:15:00,
2013-12-02 09:21:00,30.3,26.6,29.80,ESE,123,7.0,12.0,86,0.00,,OVC048,0.00,VWS V14.01,2013-12-02 15:21:00,
2013-12-02 09:26:00,30.1,26.7,29.80,ESE,115,5.0,13.0,87,0.00,,OVC048,0.00,VWS V14.01,2013-12-02 15:26:00,
2013-12-02 09:30:00,30.1,27.0,29.79,ESE,114,5.0,13.0,88,0.00,,,0.00,VWS V15.00,2013-12-02 15:30:00,
2013-12-02 09:31:00,30.1,27.0,29.79,ESE,114,10.0,13.0,88,0.00,,OVC048,0.00,VWS V14.01,2013-12-02 15:31:00,
2013-12-02 09:36:00,30.1,27.0,29.79,ESE,112,3.0,11.0,88,0.00,,OVC048,0.00,VWS V14.01,2013-12-02 15:36:00,
2013-12-02 09:41:00,30.1,27.3,29.79,ESE,118,6.0,11.0,89,0.00,,OVC036,0.00,VWS V14.01,2013-12-02 15:41:00,
2013-12-02 09:45:00,30.0,27.2,29.79,East,99,7.0,12.0,89,0.00,,,0.00,VWS V15.00,2013-12-02 15:45:00,
2013-12-02 09:46:00,30.0,27.2,29.79,ESE,110,7.0,12.0,89,0.00,,OVC036,0.00,VWS V14.01,2013-12-02 15:46:00,
2013-12-02 09:51:00,30.0,27.2,29.79,ESE,107,7.0,10.0,89,0.00,,OVC034,0.00,VWS V14.01,2013-12-02 15:51:00,
2013-12-02 09:56:00,30.0,27.4,29.79,ESE,108,11.0,12.0,90,0.00,,OVC034,0.00,VWS V14.01,2013-12-02 15:56:00,
2013-12-02 10:00:00,30.0,27.4,29.79,ESE,113,10.0,14.0,90,0.00,,,0.00,VWS V15.00,2013-12-02 16:00:00,
2013-12-02 10:01:00,30.0,27.4,29.79,ESE,113,11.0,14.0,90,0.00,,OVC034,0.00,VWS V14.01,2013-12-02 16:01:00,
2013-12-02 10:06:00,30.0,27.7,29.79,East,99,7.0,11.0,91,0.00,,OVC034,0.00,VWS V14.01,2013-12-02 16:06:00,
2013-12-02 10:11:00,30.1,27.8,29.79,ESE,117,11.0,15.0,91,0.00,,OVC034,0.00,VWS V14.01,2013-12-02 16:11:00,
2013-12-02 10:15:00,30.1,27.8,29.78,ESE,115,6.0,15.0,91,0.00,,,0.00,VWS V15.00,2013-12-02 16:15:00,
2013-12-02 10:16:00,30.1,27.8,29.78,ESE,112,8.0,15.0,91,0.00,,OVC034,0.00,VWS V14.01,2013-12-02 16:16:00,
2013-12-02 10:21:00,30.1,27.8,29.78,ESE,115,11.0,13.0,91,0.00,,OVC034,0.00,VWS V14.01,2013-12-02 16:21:00,
2013-12-02 10:26:00,30.3,28.0,29.78,ESE,117,12.0,16.0,91,0.00,,OVC034,0.00,VWS V14.01,2013-12-02 16:26:00,
2013-12-02 10:30:00,30.4,28.4,29.78,ESE,122,6.0,16.0,92,0.00,,,0.00,VWS V15.00,2013-12-02 16:30:00,
2013-12-02 10:31:00,30.3,28.3,29.78,ESE,104,14.0,16.0,92,0.00,,OVC034,0.00,VWS V14.01,2013-12-02 16:31:00,
2013-12-02 10:36:00,30.4,28.4,29.78,ESE,113,5.0,12.0,92,0.00,,OVC034,0.00,VWS V14.01,2013-12-02 16:36:00,
2013-12-02 10:41:00,30.4,28.4,29.78,ESE,114,6.0,14.0,92,0.00,,OVC024,0.00,VWS V14.01,2013-12-02 16:41:00,
2013-12-02 10:45:00,30.6,28.6,29.77,ESE,108,9.0,14.0,92,0.00,,,0.00,VWS V15.00,2013-12-02 16:45:00,
2013-12-02 10:46:00,30.6,28.6,29.77,ESE,109,6.0,14.0,92,0.00,,OVC024,0.00,VWS V14.01,2013-12-02 16:46:00,
2013-12-02 10:51:00,30.7,28.7,29.77,ESE,106,6.0,11.0,92,0.00,,OVC011,0.00,VWS V14.01,2013-12-02 16:51:00,
2013-12-02 10:57:00,30.9,28.9,29.77,ESE,115,3.0,11.0,92,0.00,,OVC011,0.00,VWS V14.01,2013-12-02 16:57:00,
2013-12-02 11:00:00,31.0,29.0,29.76,ESE,108,7.0,11.0,92,0.00,,,0.00,VWS V15.00,2013-12-02 17:00:00,
2013-12-02 11:02:00,31.0,29.0,29.76,ESE,108,4.0,11.0,92,0.00,,OVC011,0.00,VWS V14.01,2013-12-02 17:02:00,
2013-12-02 11:07:00,31.2,29.1,29.76,East,98,3.0,11.0,92,0.00,,OVC011,0.00,VWS V14.01,2013-12-02 17:07:00,
2013-12-02 11:12:00,31.2,29.1,29.76,ESE,107,10.0,12.0,92,0.00,,OVC011,0.00,VWS V14.01,2013-12-02 17:12:00,
2013-12-02 11:15:00,31.3,29.5,29.76,ESE,110,7.0,12.0,93,0.00,,,0.00,VWS V15.00,2013-12-02 17:15:00,
2013-12-02 11:17:00,31.3,29.5,29.76,ESE,110,9.0,12.0,93,0.00,,OVC011,0.00,VWS V14.01,2013-12-02 17:17:00,
2013-12-02 11:22:00,31.5,29.7,29.76,ESE,102,6.0,12.0,93,0.00,,OVC011,0.00,VWS V14.01,2013-12-02 17:22:00,
2013-12-02 11:27:00,31.6,29.8,29.76,ESE,108,12.0,12.0,93,0.00,,OVC011,0.00,VWS V14.01,2013-12-02 17:27:00,
2013-12-02 11:30:00,31.8,30.0,29.75,ESE,122,13.0,13.0,93,0.00,,,0.00,VWS V15.00,2013-12-02 17:30:00,
2013-12-02 11:32:00,31.8,30.0,29.75,ESE,122,13.0,13.0,93,0.00,,OVC011,0.00,VWS V14.01,2013-12-02 17:32:00,
2013-12-02 11:37:00,31.9,30.1,29.75,ESE,115,9.0,13.0,93,0.00,,OVC011,0.00,VWS V14.01,2013-12-02 17:37:00,
2013-12-02 11:42:00,32.1,30.3,29.75,ESE,108,10.0,13.0,93,0.00,,OVC006,0.00,VWS V14.01,2013-12-02 17:42:00,
2013-12-02 11:45:00,32.1,30.3,29.74,ESE,108,11.0,14.0,93,0.00,,,0.00,VWS V15.00,2013-12-02 17:45:00,
2013-12-02 11:47:00,32.1,30.3,29.74,ESE,108,11.0,14.0,93,0.00,,OVC006,0.00,VWS V14.01,2013-12-02 17:47:00,
2013-12-02 11:52:00,32.2,30.4,29.74,SE,129,6.0,11.0,93,0.00,,OVC012,0.00,VWS V14.01,2013-12-02 17:52:00,
2013-12-02 11:57:00,32.4,30.6,29.74,SE,127,16.0,16.0,93,0.00,,OVC012,0.00,VWS V14.01,2013-12-02 17:57:00,
2013-12-02 12:00:00,32.4,30.6,29.73,SE,127,12.0,16.0,93,0.00,,,0.00,VWS V15.00,2013-12-02 18:00:00,
2013-12-02 12:02:00,32.4,30.6,29.73,SE,127,12.0,16.0,93,0.00,,OVC012,0.00,VWS V14.01,2013-12-02 18:02:00,
2013-12-02 12:07:00,32.4,30.6,29.73,SE,136,7.0,13.0,93,0.00,,OVC012,0.00,VWS V14.01,2013-12-02 18:07:00,
2013-12-02 12:12:00,32.4,30.6,29.73,ESE,113,10.0,13.0,93,0.00,,OVC012,0.00,VWS V14.01,2013-12-02 18:12:00,
2013-12-02 12:15:00,32.5,30.7,29.72,SE,131,10.0,15.0,93,0.00,,,0.00,VWS V15.00,2013-12-02 18:15:00,
2013-12-02 12:17:00,32.5,30.7,29.72,SE,127,10.0,10.0,93,0.00,,OVC012,0.00,VWS V14.01,2013-12-02 18:17:00,
2013-12-02 12:22:00,32.7,30.9,29.72,SE,138,10.0,16.0,93,0.00,,OVC012,0.00,VWS V14.01,2013-12-02 18:22:00,
2013-12-02 12:27:00,32.8,31.0,29.72,SE,137,12.0,16.0,93,0.00,,OVC012,0.00,VWS V14.01,2013-12-02 18:27:00,
2013-12-02 12:30:00,32.8,30.7,29.72,SE,143,9.0,17.0,92,0.00,,,0.00,VWS V15.00,2013-12-02 18:30:00,
2013-12-02 12:32:00,32.8,30.7,29.72,SE,143,5.0,9.0,92,0.00,,OVC012,0.00,VWS V14.01,2013-12-02 18:32:00,
2013-12-02 12:37:00,32.9,30.8,29.72,SE,141,5.0,11.0,92,0.00,,OVC012,0.00,VWS V14.01,2013-12-02 18:37:00,
2013-12-02 12:42:00,32.9,30.8,29.72,SE,132,6.0,12.0,92,0.00,,OVC006,0.00,VWS V14.01,2013-12-02 18:42:00,
2013-12-02 12:45:00,33.1,31.0,29.72,SE,130,10.0,14.0,92,0.00,,,0.00,VWS V15.00,2013-12-02 18:45:00,
2013-12-02 12:47:00,33.1,31.0,29.72,SE,129,6.0,10.0,92,0.00,,OVC006,0.00,VWS V14.01,2013-12-02 18:47:00,
2013-12-02 12:52:00,33.1,30.8,29.72,ESE,121,9.0,15.0,91,0.00,,OVC006,0.00,VWS V14.01,2013-12-02 18:52:00,
2013-12-02 12:57:00,33.2,30.9,29.72,ESE,120,9.0,15.0,91,0.00,,OVC006,0.00,VWS V14.01,2013-12-02 18:57:00,
2013-12-02 13:00:00,33.4,31.1,29.71,SE,145,11.0,15.0,91,0.00,,,0.00,VWS V15.00,2013-12-02 19:00:00,
2013-12-02 13:02:00,33.4,31.1,29.71,SE,146,9.0,11.0,91,0.00,,OVC006,0.00,VWS V14.01,2013-12-02 19:02:00,
2013-12-02 13:07:00,33.4,30.8,29.71,SE,146,5.0,11.0,90,0.00,,OVC006,0.00,VWS V14.01,2013-12-02 19:07:00,
2013-12-02 13:12:00,33.5,30.9,29.71,ESE,123,4.0,12.0,90,0.00,,OVC006,0.00,VWS V14.01,2013-12-02 19:12:00,
2013-12-02 13:15:00,33.5,30.9,29.70,SE,132,9.0,14.0,90,0.00,,,0.00,VWS V15.00,2013-12-02 19:15:00,
2013-12-02 13:17:00,33.5,30.9,29.70,SE,131,6.0,9.0,90,0.00,,OVC006,0.00,VWS V14.01,2013-12-02 19:17:00,
2013-12-02 13:22:00,33.7,31.1,29.70,East,100,7.0,12.0,90,0.00,,OVC006,0.00,VWS V14.01,2013-12-02 19:22:00,
2013-12-02 13:27:00,33.7,30.8,29.70,ESE,116,6.0,14.0,89,0.00,,OVC006,0.00,VWS V14.01,2013-12-02 19:27:00,
2013-12-02 13:30:00,33.8,30.9,29.69,ESE,108,5.0,14.0,89,0.00,,,0.00,VWS V15.00,2013-12-02 19:30:00,
2013-12-02 13:32:00,33.8,30.9,29.69,ESE,107,6.0,11.0,89,0.00,,OVC006,0.00,VWS V14.01,2013-12-02 19:32:00,
2013-12-02 13:37:00,34.0,31.1,29.69,ESE,112,4.0,12.0,89,0.01,,OVC006,0.01,VWS V14.01,2013-12-02 19:37:00,
2013-12-02 13:42:00,34.0,31.1,29.69,East,96,15.0,15.0,89,0.01,,OVC008,0.01,VWS V14.01,2013-12-02 19:42:00,
2013-12-02 13:45:00,34.1,31.2,29.69,ESE,118,11.0,16.0,89,0.01,,,0.01,VWS V15.00,2013-12-02 19:45:00,
2013-12-02 13:48:00,34.1,31.2,29.69,ESE,121,9.0,11.0,89,0.01,,OVC008,0.01,VWS V14.01,2013-12-02 19:48:00,
2013-12-02 13:53:00,34.3,31.1,29.69,ESE,122,11.0,12.0,88,0.01,,OVC008,0.01,VWS V14.01,2013-12-02 19:53:00,
2013-12-02 13:58:00,34.3,31.1,29.69,ESE,108,9.0,15.0,88,0.01,,OVC008,0.01,VWS V14.01,2013-12-02 19:58:00,
2013-12-02 14:00:00,34.3,31.1,29.68,SE,131,16.0,16.0,88,0.01,,,0.01,VWS V15.00,2013-12-02 20:00:00,
2013-12-02 14:03:00,34.3,31.1,29.68,East,92,13.0,16.0,88,0.01,,OVC008,0.01,VWS V14.01,2013-12-02 20:03:00,
2013-12-02 14:08:00,34.3,31.1,29.68,SE,130,11.0,16.0,88,0.01,,OVC008,0.01,VWS V14.01,2013-12-02 20:08:00,
2013-12-02 14:13:00,34.3,30.8,29.68,SE,133,14.0,20.0,87,0.01,,OVC008,0.01,VWS V14.01,2013-12-02 20:13:00,
2013-12-02 14:15:00,34.3,30.8,29.67,SSE,150,6.0,20.0,87,0.02,,,0.02,VWS V15.00,2013-12-02 20:15:00,
2013-12-02 14:18:00,34.3,30.8,29.67,SE,146,7.0,7.0,87,0.02,,OVC008,0.02,VWS V14.01,2013-12-02 20:18:00,
2013-12-02 14:23:00,34.3,30.8,29.67,SE,135,12.0,21.0,87,0.02,,OVC008,0.02,VWS V14.01,2013-12-02 20:23:00,
2013-12-02 14:28:00,34.3,30.8,29.67,SE,135,13.0,21.0,87,0.02,,OVC008,0.02,VWS V14.01,2013-12-02 20:28:00,
2013-12-02 14:30:00,34.3,30.8,29.67,ESE,120,7.0,21.0,87,0.02,,,0.02,VWS V15.00,2013-12-02 20:30:00,
2013-12-02 14:33:00,34.3,30.8,29.67,SE,135,15.0,15.0,87,0.02,,OVC008,0.02,VWS V14.01,2013-12-02 20:33:00,
2013-12-02 14:38:00,34.4,30.9,29.67,SE,131,12.0,15.0,87,0.02,,OVC008,0.02,VWS V14.01,2013-12-02 20:38:00,
2013-12-02 14:43:00,34.4,30.6,29.67,ESE,120,9.0,16.0,86,0.02,,OVC008,0.02,VWS V14.01,2013-12-02 20:43:00,
2013-12-02 14:45:00,34.4,30.6,29.67,ESE,106,13.0,16.0,86,0.03,,,0.03,VWS V15.00,2013-12-02 20:45:00,
2013-12-02 14:48:00,34.4,30.6,29.67,ESE,120,13.0,13.0,86,0.02,,OVC008,0.03,VWS V14.01,2013-12-02 20:48:00,
2013-12-02 14:53:00,34.4,30.6,29.67,SE,130,15.0,16.0,86,0.02,,OVC010,0.03,VWS V14.01,2013-12-02 20:53:00,
2013-12-02 14:58:00,34.3,30.6,29.67,SE,137,14.0,16.0,86,0.02,,OVC010,0.03,VWS V14.01,2013-12-02 20:58:00,
2013-12-02 15:00:00,34.3,30.6,29.67,SE,137,12.0,16.0,86,0.02,,,0.03,VWS V15.00,2013-12-02 21:00:00,
2013-12-02 15:03:00,34.3,30.6,29.67,SE,127,8.0,12.0,86,0.02,,OVC010,0.03,VWS V14.01,2013-12-02 21:03:00,
2013-12-02 15:08:00,34.3,30.6,29.67,SE,132,6.0,12.0,86,0.02,,OVC010,0.03,VWS V14.01,2013-12-02 21:08:00,
2013-12-02 15:13:00,34.1,30.4,29.67,SE,131,9.0,14.0,86,0.02,,OVC010,0.03,VWS V14.01,2013-12-02 21:13:00,
2013-12-02 15:15:00,34.1,30.4,29.67,SE,138,7.0,14.0,86,0.02,,,0.03,VWS V15.00,2013-12-02 21:15:00,
2013-12-02 15:18:00,34.1,30.4,29.67,ESE,123,6.0,12.0,86,0.01,,OVC010,0.03,VWS V14.01,2013-12-02 21:18:00,
2013-12-02 15:23:00,34.1,30.4,29.67,SE,142,11.0,14.0,86,0.01,,OVC010,0.03,VWS V14.01,2013-12-02 21:23:00,
2013-12-02 15:28:00,34.1,30.4,29.67,SE,136,11.0,15.0,86,0.01,,OVC010,0.03,VWS V14.01,2013-12-02 21:28:00,
2013-12-02 15:30:00,34.1,30.4,29.67,SE,132,11.0,15.0,86,0.01,,,0.03,VWS V15.00,2013-12-02 21:30:00,
2013-12-02 15:33:00,34.3,30.6,29.67,SE,135,6.0,11.0,86,0.01,,OVC010,0.03,VWS V14.01,2013-12-02 21:33:00,
2013-12-02 15:38:00,34.1,30.4,29.67,ESE,118,4.0,11.0,86,0.01,,OVC010,0.03,VWS V14.01,2013-12-02 21:38:00,
2013-12-02 15:43:00,34.1,30.4,29.67,ESE,118,4.0,11.0,86,0.01,,OVC045,0.03,VWS V14.01,2013-12-02 21:43:00,
2013-12-02 15:45:00,34.1,30.4,29.67,SE,129,13.0,13.0,86,0.01,,,0.03,VWS V15.00,2013-12-02 21:45:00,
2013-12-02 15:48:00,34.1,30.4,29.67,ESE,111,9.0,13.0,86,0.00,,OVC045,0.03,VWS V14.01,2013-12-02 21:48:00,
2013-12-02 15:53:00,34.0,30.3,29.67,East,101,11.0,14.0,86,0.00,,OVC014,0.03,VWS V14.01,2013-12-02 21:53:00,
2013-12-02 15:58:00,34.0,30.3,29.67,ESE,118,9.0,19.0,86,0.00,,OVC014,0.03,VWS V14.01,2013-12-02 21:58:00,
2013-12-02 16:00:00,34.1,30.4,29.67,ESE,117,10.0,19.0,86,0.00,,,0.03,VWS V15.00,2013-12-02 22:00:00,
2013-12-02 16:03:00,34.1,30.4,29.67,ESE,113,11.0,11.0,86,0.00,,OVC014,0.03,VWS V14.01,2013-12-02 22:03:00,
2013-12-02 16:08:00,34.1,30.4,29.67,ESE,111,7.0,15.0,86,0.00,,OVC014,0.03,VWS V14.01,2013-12-02 22:08:00,
2013-12-02 16:13:00,34.1,30.4,29.67,ESE,104,4.0,15.0,86,0.00,,OVC014,0.03,VWS V14.01,2013-12-02 22:13:00,
2013-12-02 16:15:00,34.0,30.3,29.66,ESE,107,9.0,15.0,86,0.00,,,0.03,VWS V15.00,2013-12-02 22:15:00,
2013-12-02 16:18:00,34.0,30.3,29.66,ESE,108,10.0,12.0,86,0.00,,OVC014,0.03,VWS V14.01,2013-12-02 22:18:00,
2013-12-02 16:23:00,34.0,30.3,29.66,ESE,103,5.0,16.0,86,0.01,,OVC014,0.04,VWS V14.01,2013-12-02 22:23:00,
2013-12-02 16:28:00,34.0,30.3,29.66,ESE,109,4.0,16.0,86,0.01,,OVC014,0.04,VWS V14.01,2013-12-02 22:28:00,
2013-12-02 16:30:00,33.8,30.1,29.66,ESE,112,3.0,16.0,86,0.01,,,0.04,VWS V15.00,2013-12-02 22:30:00,
2013-12-02 16:33:00,33.8,30.1,29.66,ESE,107,9.0,10.0,86,0.01,,OVC014,0.04,VWS V14.01,2013-12-02 22:33:00,
2013-12-02 16:39:00,33.7,30.2,29.66,ESE,118,6.0,15.0,87,0.01,,OVC014,0.04,VWS V14.01,2013-12-02 22:39:00,
2013-12-02 16:44:00,33.4,30.2,29.66,ESE,102,12.0,15.0,88,0.01,,-RA,0.04,VWS V14.01,2013-12-02 22:44:00,
2013-12-02 16:45:00,33.4,30.2,29.66,East,99,7.0,15.0,88,0.01,,,0.04,VWS V15.00,2013-12-02 22:45:00,
2013-12-02 16:49:00,33.2,30.0,29.66,East,88,14.0,14.0,88,0.01,,-RA,0.04,VWS V14.01,2013-12-02 22:49:00,
2013-12-02 16:54:00,33.2,30.3,29.66,ESE,106,9.0,14.0,89,0.01,,-RA,0.04,VWS V14.01,2013-12-02 22:54:00,
2013-12-02 16:59:00,33.1,30.2,29.66,SE,131,9.0,14.0,89,0.01,,-RA,0.04,VWS V14.01,2013-12-02 22:59:00,
2013-12-02 17:00:00,32.9,30.0,29.66,ESE,111,6.0,14.0,89,0.01,,,0.04,VWS V15.00,2013-12-02 23:00:00,
2013-12-02 17:04:00,32.9,30.3,29.66,ESE,118,3.0,12.0,90,0.01,,-RA,0.04,VWS V14.01,2013-12-02 23:04:00,
2013-12-02 17:09:00,32.8,30.2,29.66,ESE,104,9.0,13.0,90,0.01,,-RA,0.04,VWS V14.01,2013-12-02 23:09:00,
2013-12-02 17:14:00,32.7,30.4,29.66,ESE,106,3.0,13.0,91,0.01,,-RA,0.04,VWS V14.01,2013-12-02 23:14:00,
2013-12-02 17:15:00,32.7,30.4,29.66,ESE,105,8.0,13.0,91,0.01,,,0.04,VWS V15.00,2013-12-02 23:15:00,
2013-12-02 17:19:00,32.7,30.4,29.66,ESE,103,5.0,12.0,91,0.01,,-RA,0.04,VWS V14.01,2013-12-02 23:19:00,
2013-12-02 17:24:00,32.7,30.6,29.66,ESE,106,5.0,12.0,92,0.01,,-RA,0.04,VWS V14.01,2013-12-02 23:24:00,
2013-12-02 17:29:00,32.5,30.4,29.66,ESE,116,12.0,14.0,92,0.01,,-RA,0.04,VWS V14.01,2013-12-02 23:29:00,
2013-12-02 17:30:00,32.5,30.4,29.66,ESE,115,12.0,14.0,92,0.01,,,0.04,VWS V15.00,2013-12-02 23:30:00,
2013-12-02 17:34:00,32.5,30.4,29.66,SE,134,12.0,12.0,92,0.00,,-RA,0.04,VWS V14.01,2013-12-02 23:34:00,
2013-12-02 17:39:00,32.5,30.4,29.66,ESE,110,3.0,12.0,92,0.00,,-RA,0.04,VWS V14.01,2013-12-02 23:39:00,
2013-12-02 17:44:00,32.4,30.6,29.66,East,88,8.0,13.0,93,0.00,,OVC013,0.04,VWS V14.01,2013-12-02 23:44:00,
2013-12-02 17:45:00,32.4,30.6,29.66,ESE,105,13.0,13.0,93,0.00,,,0.04,VWS V15.00,2013-12-02 23:45:00,
2013-12-02 17:49:00,32.4,30.6,29.66,ESE,102,5.0,13.0,93,0.00,,OVC013,0.04,VWS V14.01,2013-12-02 23:49:00,
2013-12-02 17:54:00,32.4,30.6,29.66,ESE,113,5.0,14.0,93,0.00,,OVC011,0.04,VWS V14.01,2013-12-02 23:54:00,
2013-12-02 17:59:00,32.4,30.6,29.66,East,95,9.0,14.0,93,0.00,,OVC011,0.04,VWS V14.01,2013-12-02 23:59:00,
2013-12-02 18:00:00,32.4,30.6,29.65,East,99,9.0,15.0,93,0.00,,,0.04,VWS V15.00,2013-12-03 00:00:00,
2013-12-02 18:04:00,32.2,30.7,29.65,East,101,6.0,9.0,94,0.00,,OVC011,0.04,VWS V14.01,2013-12-03 00:04:00,
2013-12-02 18:09:00,32.2,30.7,29.65,East,94,3.0,15.0,94,0.00,,OVC011,0.04,VWS V14.01,2013-12-03 00:09:00,
2013-12-02 18:14:00,32.2,30.7,29.65,East,101,5.0,15.0,94,0.00,,OVC009,0.04,VWS V14.01,2013-12-03 00:14:00,
2013-12-02 18:15:00,32.2,30.7,29.64,East,101,9.0,15.0,94,0.00,,,0.04,VWS V15.00,2013-12-03 00:15:00,
2013-12-02 18:19:00,32.2,30.7,29.64,East,91,5.0,12.0,94,0.00,,OVC009,0.04,VWS V14.01,2013-12-03 00:19:00,
2013-12-02 18:24:00,32.2,30.7,29.64,East,99,3.0,12.0,94,0.00,,OVC009,0.04,VWS V14.01,2013-12-03 00:24:00,
2013-12-02 18:29:00,32.2,30.7,29.64,ESE,105,10.0,13.0,94,0.00,,OVC009,0.04,VWS V14.01,2013-12-03 00:29:00,
2013-12-02 18:30:00,32.2,30.7,29.64,East,89,9.0,15.0,94,0.00,,,0.04,VWS V15.00,2013-12-03 00:30:00,
2013-12-02 18:34:00,32.2,30.7,29.64,East,90,10.0,13.0,94,0.00,,OVC009,0.04,VWS V14.01,2013-12-03 00:34:00,
2013-12-02 18:39:00,32.2,30.9,29.64,ESE,111,12.0,15.0,95,0.00,,OVC009,0.04,VWS V14.01,2013-12-03 00:39:00,
2013-12-02 18:44:00,32.2,30.9,29.64,ESE,121,13.0,15.0,95,0.00,,OVC009,0.04,VWS V14.01,2013-12-03 00:44:00,
2013-12-02 18:45:00,32.4,31.1,29.64,ESE,110,11.0,16.0,95,0.00,,,0.04,VWS V15.00,2013-12-03 00:45:00,
2013-12-02 18:49:00,32.4,31.1,29.64,East,90,14.0,14.0,95,0.00,,OVC009,0.04,VWS V14.01,2013-12-03 00:49:00,
2013-12-02 18:54:00,32.4,31.1,29.64,East,86,3.0,15.0,95,0.00,,OVC006,0.04,VWS V14.01,2013-12-03 00:54:00,
2013-12-02 18:59:00,32.4,31.1,29.64,East,80,3.0,15.0,95,0.00,,OVC006,0.04,VWS V14.01,2013-12-03 00:59:00,
2013-12-02 19:00:00,32.4,31.1,29.64,SE,134,13.0,15.0,95,0.00,,,0.04,VWS V15.00,2013-12-03 01:00:00,
2013-12-02 19:04:00,32.4,31.1,29.64,ESE,105,11.0,13.0,95,0.00,,OVC006,0.04,VWS V14.01,2013-12-03 01:04:00,
2013-12-02 19:09:00,32.4,31.1,29.64,ESE,111,5.0,13.0,95,0.00,,OVC006,0.04,VWS V14.01,2013-12-03 01:09:00,
2013-12-02 19:14:00,32.4,31.1,29.64,ESE,111,5.0,13.0,95,0.00,,OVC006,0.04,VWS V14.01,2013-12-03 01:14:00,
2013-12-02 19:15:00,32.4,31.1,29.64,SE,130,12.0,13.0,95,0.00,,,0.04,VWS V15.00,2013-12-03 01:15:00,
2013-12-02 19:19:00,32.2,30.9,29.64,SE,132,4.0,12.0,95,0.00,,OVC006,0.04,VWS V14.01,2013-12-03 01:19:00,
2013-12-02 19:24:00,32.4,31.1,29.64,ESE,123,6.0,14.0,95,0.00,,OVC006,0.04,VWS V14.01,2013-12-03 01:24:00,
2013-12-02 19:30:00,32.4,31.1,29.64,SE,137,9.0,19.0,95,0.00,,OVC006,0.04,VWS V14.01,2013-12-03 01:30:00,
2013-12-02 19:35:00,32.4,31.1,29.64,ESE,115,14.0,14.0,95,0.00,,OVC006,0.04,VWS V14.01,2013-12-03 01:35:00,
2013-12-02 19:40:00,32.4,31.1,29.64,ESE,102,6.0,14.0,95,0.00,,OVC006,0.04,VWS V14.01,2013-12-03 01:40:00,
2013-12-02 19:45:00,32.5,31.2,29.64,SE,129,8.0,15.0,95,0.00,,OVC007,0.04,VWS V14.01,2013-12-03 01:45:00,
2013-12-02 19:50:00,32.5,31.2,29.65,East,101,9.0,16.0,95,0.00,,OVC007,0.04,VWS V14.01,2013-12-03 01:50:00,
2013-12-02 19:55:00,32.5,31.2,29.65,ESE,110,13.0,16.0,95,0.00,,OVC007,0.04,VWS V14.01,2013-12-03 01:55:00,
2013-12-02 20:00:00,32.5,31.2,29.65,SE,125,10.0,16.0,95,0.00,,OVC007,0.04,VWS V14.01,2013-12-03 02:00:00,
2013-12-02 20:05:00,32.7,31.4,29.65,SE,135,13.0,16.0,95,0.00,,OVC007,0.04,VWS V14.01,2013-12-03 02:05:00,
2013-12-02 20:10:00,32.7,31.4,29.65,SE,125,10.0,16.0,95,0.00,,OVC007,0.04,VWS V14.01,2013-12-03 02:10:00,
2013-12-02 20:15:00,32.7,31.4,29.65,SE,125,12.0,16.0,95,0.00,,OVC007,0.04,VWS V14.01,2013-12-03 02:15:00,
2013-12-02 20:20:00,32.7,31.4,29.65,ESE,119,5.0,13.0,95,0.00,,OVC007,0.04,VWS V14.01,2013-12-03 02:20:00,
2013-12-02 20:25:00,32.7,31.4,29.65,SE,126,12.0,17.0,95,0.00,,OVC007,0.04,VWS V14.01,2013-12-03 02:25:00,
2013-12-02 20:30:00,32.7,31.4,29.65,SE,126,9.0,17.0,95,0.00,,OVC007,0.04,VWS V14.01,2013-12-03 02:30:00,
2013-12-02 20:35:00,32.7,31.4,29.66,SE,131,9.0,12.0,95,0.00,,OVC007,0.04,VWS V14.01,2013-12-03 02:35:00,
2013-12-02 20:40:00,32.7,31.4,29.66,ESE,111,15.0,15.0,95,0.00,,OVC007,0.04,VWS V14.01,2013-12-03 02:40:00,
2013-12-02 20:45:00,32.7,31.4,29.66,SE,132,10.0,15.0,95,0.00,,OVC007,0.04,VWS V14.01,2013-12-03 02:45:00,
2013-12-02 20:50:00,32.7,31.4,29.65,SE,130,14.0,16.0,95,0.00,,OVC012,0.04,VWS V14.01,2013-12-03 02:50:00,
2013-12-02 20:55:00,32.7,31.4,29.65,ESE,123,17.0,17.0,95,0.00,,OVC012,0.04,VWS V14.01,2013-12-03 02:55:00,
2013-12-02 21:00:00,32.7,31.4,29.65,SE,138,15.0,18.0,95,0.00,,OVC012,0.04,VWS V14.01,2013-12-03 03:00:00,
2013-12-02 21:05:00,32.7,31.4,29.66,SE,145,10.0,12.0,95,0.00,,OVC012,0.04,VWS V14.01,2013-12-03 03:05:00,
2013-12-02 21:10:00,32.7,31.4,29.66,ESE,122,6.0,14.0,95,0.00,,OVC012,0.04,VWS V14.01,2013-12-03 03:10:00,
2013-12-02 21:15:00,32.7,31.4,29.66,SE,130,9.0,18.0,95,0.00,,OVC012,0.04,VWS V14.01,2013-12-03 03:15:00,
2013-12-02 21:20:00,32.7,31.4,29.65,ESE,121,6.0,16.0,95,0.00,,OVC012,0.04,VWS V14.01,2013-12-03 03:20:00,
2013-12-02 21:25:00,32.7,31.4,29.65,SE,125,6.0,16.0,95,0.00,,OVC012,0.04,VWS V14.01,2013-12-03 03:25:00,
2013-12-02 21:30:00,32.7,31.4,29.65,SE,125,11.0,16.0,95,0.00,,OVC012,0.04,VWS V14.01,2013-12-03 03:30:00,
2013-12-02 21:35:00,32.7,31.4,29.65,ESE,108,14.0,18.0,95,0.00,,OVC012,0.04,VWS V14.01,2013-12-03 03:35:00,
2013-12-02 21:40:00,32.5,31.2,29.65,ESE,112,10.0,19.0,95,0.00,,,0.04,VWS V14.01,2013-12-03 03:40:00,
2013-12-02 21:45:00,32.7,31.4,29.65,ESE,113,7.0,19.0,95,0.00,,,0.04,VWS V14.01,2013-12-03 03:45:00,
2013-12-02 21:50:00,32.7,31.4,29.64,ESE,118,10.0,17.0,95,0.00,,OVC010,0.04,VWS V14.01,2013-12-03 03:50:00,
2013-12-02 21:55:00,32.7,31.4,29.64,ESE,120,9.0,17.0,95,0.00,,OVC010,0.04,VWS V14.01,2013-12-03 03:55:00,
2013-12-02 22:00:00,32.7,31.4,29.64,SE,136,9.0,17.0,95,0.00,,OVC010,0.04,VWS V14.01,2013-12-03 04:00:00,
2013-12-02 22:06:00,32.8,31.5,29.64,ESE,123,6.0,18.0,95,0.00,,OVC010,0.04,VWS V14.01,2013-12-03 04:06:00,
2013-12-02 22:11:00,32.8,31.5,29.64,ESE,113,10.0,20.0,95,0.00,,OVC010,0.04,VWS V14.01,2013-12-03 04:11:00,
2013-12-02 22:15:00,32.9,31.6,29.64,SE,138,12.0,20.0,95,0.00,,,0.04,VWS V15.00,2013-12-03 04:15:00,
2013-12-02 22:16:00,32.8,31.5,29.64,ESE,121,10.0,20.0,95,0.00,,OVC010,0.04,VWS V14.01,2013-12-03 04:16:00,
2013-12-02 22:21:00,32.9,31.6,29.64,SE,130,14.0,16.0,95,0.00,,OVC010,0.04,VWS V14.01,2013-12-03 04:21:00,
2013-12-02 22:26:00,32.9,31.6,29.64,SE,132,10.0,18.0,95,0.00,,OVC010,0.04,VWS V14.01,2013-12-03 04:26:00,
2013-12-02 22:30:00,32.9,31.6,29.64,SE,124,8.0,19.0,95,0.00,,,0.04,VWS V15.00,2013-12-03 04:30:00,
2013-12-02 22:31:00,32.9,31.6,29.64,SE,138,17.0,19.0,95,0.00,,OVC010,0.04,VWS V14.01,2013-12-03 04:31:00,
2013-12-02 22:36:00,32.9,31.6,29.64,SE,132,9.0,16.0,95,0.01,,OVC010,0.06,VWS V14.01,2013-12-03 04:36:00,
2013-12-02 22:41:00,32.9,31.6,29.64,ESE,123,7.0,19.0,95,0.01,,OVC007,0.06,VWS V14.01,2013-12-03 04:41:00,
2013-12-02 22:45:00,32.9,31.6,29.64,ESE,118,12.0,19.0,95,0.01,,,0.05,VWS V15.00,2013-12-03 04:45:00,
2013-12-02 22:46:00,32.9,31.6,29.64,SE,132,14.0,19.0,95,0.01,,OVC007,0.06,VWS V14.01,2013-12-03 04:46:00,
2013-12-02 22:51:00,32.9,31.6,29.64,SE,127,18.0,19.0,95,0.01,,OVC011,0.06,VWS V14.01,2013-12-03 04:51:00,
2013-12-02 22:56:00,33.1,31.8,29.64,SE,125,15.0,19.0,95,0.01,,OVC011,0.06,VWS V14.01,2013-12-03 04:56:00,
2013-12-02 23:00:00,33.1,31.8,29.64,SE,136,13.0,22.0,95,0.01,,,0.05,VWS V15.00,2013-12-03 05:00:00,
2013-12-02 23:01:00,32.9,31.6,29.64,SE,130,17.0,22.0,95,0.01,,OVC011,0.06,VWS V14.01,2013-12-03 05:01:00,
2013-12-02 23:02:00,33.1,31.8,29.64,SE,135,12.0,22.0,95,0.01,,OVC011,0.06,VWS V14.01,2013-12-03 05:02:00,
2013-12-02 23:04:00,33.1,31.8,29.64,ESE,116,15.0,20.0,95,0.01,,OVC011,0.06,VWS V14.01,2013-12-03 05:04:00,
2013-12-02 23:09:00,33.1,31.8,29.64,ESE,121,10.0,22.0,95,0.01,,OVC011,0.06,VWS V14.01,2013-12-03 05:09:00,
2013-12-02 23:10:00,33.1,31.8,29.64,SE,132,21.0,22.0,95,0.01,,OVC011,0.06,VWS V14.01,2013-12-03 05:10:00,
2013-12-02 23:14:00,33.1,31.8,29.64,ESE,123,11.0,24.0,95,0.02,,OVC011,0.07,VWS V14.01,2013-12-03 05:14:00,
2013-12-02 23:15:00,33.1,31.8,29.64,SSE,148,16.0,24.0,95,0.02,,,0.07,VWS V15.00,2013-12-03 05:15:00,
2013-12-02 23:19:00,33.1,31.8,29.64,SE,135,15.0,17.0,95,0.02,,OVC011,0.07,VWS V14.01,2013-12-03 05:19:00,
2013-12-02 23:24:00,33.1,31.8,29.64,SE,139,17.0,23.0,95,0.02,,OVC011,0.07,VWS V14.01,2013-12-03 05:24:00,
2013-12-02 23:29:00,33.1,31.8,29.64,SE,137,12.0,23.0,95,0.02,,OVC011,0.07,VWS V14.01,2013-12-03 05:29:00,
2013-12-02 23:30:00,33.1,31.8,29.64,ESE,120,11.0,23.0,95,0.02,,,0.07,VWS V15.00,2013-12-03 05:30:00,
2013-12-02 23:34:00,33.1,31.8,29.64,ESE,123,8.0,19.0,95,0.02,,OVC011,0.07,VWS V14.01,2013-12-03 05:34:00,
2013-12-02 23:39:00,33.1,31.8,29.64,SE,134,18.0,20.0,95,0.02,,OVC011,0.07,VWS V14.01,2013-12-03 05:39:00,
2013-12-02 23:44:00,33.1,31.8,29.64,ESE,123,11.0,20.0,95,0.03,,OVC008,0.08,VWS V14.01,2013-12-03 05:44:00,
2013-12-02 23:45:00,33.1,31.8,29.64,SE,132,13.0,20.0,95,0.03,,,0.08,VWS V15.00,2013-12-03 05:45:00,
2013-12-02 23:49:00,33.1,31.8,29.64,SE,139,12.0,14.0,95,0.02,,OVC008,0.08,VWS V14.01,2013-12-03 05:49:00,
2013-12-02 23:54:00,33.1,31.8,29.64,East,100,14.0,18.0,95,0.02,,OVC010,0.08,VWS V14.01,2013-12-03 05:54:00,
2013-12-02 23:59:00,33.1,31.8,29.64,SE,127,19.0,19.0,95,0.02,,OVC010,0.08,VWS V14.01,2013-12-03 05:59:00,